Stations météo

réclame
Mon MeteoGroup
Aboyne, Grande-Bretagne (3080): Température de l'air & dewpoint: 15.10.2017 20:00:00 - 21.10.2017 20:00:00 (BST)Aboyne, Grande-Bretagne (3080): Température de l'air -20cm & Température de l'air -100cm: 15.10.2017 20:00:00 - 21.10.2017 20:00:00 (BST)Aboyne, Grande-Bretagne (3080): Vitesse du vent & gusts: 15.10.2017 20:00:00 - 21.10.2017 20:00:00 (BST)Aboyne, Grande-Bretagne (3080): Direction du vent: 15.10.2017 20:00:00 - 21.10.2017 20:00:00 (BST)Aboyne, Grande-Bretagne (3080): reduced air pressure: 15.10.2017 20:00:00 - 21.10.2017 20:00:00 (BST)Aboyne, Grande-Bretagne (3080): visibility: 15.10.2017 20:00:00 - 21.10.2017 20:00:00 (BST)Aboyne, Grande-Bretagne (3080): Quantités de précipitations: 15.10.2017 20:00:00 - 21.10.2017 20:00:00 (BST)
Date & Time tt [°C] td [°C] tt -20cm [°C] tt -100cm [°C] ff [km/h] ff [knt] fx [km/h] fx [knt] dd ppp [hPa] vv [km] rr [mm]
21.10.2017 20:00:00 10,4 10,4 - - 9 5 - - ENE 991,0 9 -
21.10.2017 19:00:00 10,4 10,4 - - 11 6 - - ENE 990,6 7 0,2
21.10.2017 18:00:00 10,5 10,5 - - 13 7 - - E 990,2 7 0,0
21.10.2017 17:00:00 10,9 10,3 - - 15 8 - - E 989,9 15 0,2
21.10.2017 16:00:00 11,4 10,5 - - 13 7 - - ESE 990,0 13 0,0
21.10.2017 15:00:00 12,2 10,5 - - 16 9 - - ESE 989,9 22 0,0
21.10.2017 14:00:00 11,9 11,1 - - 15 8 - - ESE 990,1 19 0,0
21.10.2017 13:00:00 12,2 10,0 - - 16 9 - - ESE 990,4 20 0,0
21.10.2017 12:00:00 12,1 11,6 - - 13 7 - - E 990,6 22 0,0
21.10.2017 11:00:00 11,4 10,7 - - 15 8 - - ESE 991,1 16 0,0
21.10.2017 10:00:00 11,1 10,6 11,4 11,2 9 5 - - E 991,6 19 0,0
21.10.2017 09:00:00 10,7 10,3 - - 16 9 - - ESE 992,3 23 0,0
21.10.2017 08:00:00 10,5 10,3 - - 15 8 - - ESE 992,3 10 0,0
21.10.2017 07:00:00 10,3 10,2 - - 15 8 - - ESE 992,7 13 -
21.10.2017 06:00:00 9,8 9,8 - - 5 3 - - ENE 993,0 12 -
21.10.2017 05:00:00 9,6 9,6 - - 11 6 - - E 993,9 12 -
21.10.2017 04:00:00 9,9 9,1 - - 16 9 - - ESE 994,5 4,5 -
21.10.2017 03:00:00 11,1 10,1 - - 18 10 - - ESE 995,2 28 -
21.10.2017 02:00:00 10,7 9,8 - - 16 9 - - SE 996,1 40 -
21.10.2017 01:00:00 10,9 9,5 - - 5 3 - - SSE 997,2 30 -
21.10.2017 00:00:00 11,2 11,1 - - 11 6 - - E 997,7 13 -
20.10.2017 23:00:00 11,1 11,1 - - 15 8 - - E 998,6 5 -
20.10.2017 22:00:00 10,9 10,9 - - 13 7 - - E 999,3 12 -
20.10.2017 21:00:00 10,8 10,8 - - 11 6 - - E 999,8 11 0,0
20.10.2017 20:00:00 10,6 10,6 - - 9 5 - - ENE 1000,4 24 0,0
20.10.2017 19:00:00 11,2 11,2 - - 9 5 - - E 1000,7 20 0,0
20.10.2017 18:00:00 11,5 11,4 - - 11 6 - - E 1000,4 24 0,0
20.10.2017 17:00:00 12,4 12,0 - - 11 6 - - E 1000,5 35 0,0
20.10.2017 16:00:00 13,1 12,1 - - 13 7 - - ESE 1000,4 40 0,0
20.10.2017 15:00:00 13,3 11,8 - - 8 4 - - ESE 1000,5 50 0,0
20.10.2017 14:00:00 13,2 12,3 - - 5 3 - - ESE 1000,0 50 0,0
20.10.2017 13:00:00 12,8 12,0 - - 4 2 - - SW 1000,2 45 0,0
20.10.2017 12:00:00 12,3 12,1 - - 4 2 - - WSW 999,9 50 0,0
20.10.2017 11:00:00 12,2 12,2 - - 4 2 - - W 999,3 45 0,0
20.10.2017 10:00:00 11,3 11,3 11,2 11,2 4 2 - - WSW 998,6 21 0,4
20.10.2017 09:00:00 10,7 10,7 - - 2 1 - - WNW 998,1 2,9 0,2
20.10.2017 08:00:00 10,7 10,7 - - 2 1 - - E 996,9 6 0,0
20.10.2017 07:00:00 10,7 10,7 - - 0 0 - - N 996,2 7 0,0
20.10.2017 06:00:00 10,8 10,8 - - 4 2 - - ENE 995,5 5 0,0
20.10.2017 05:00:00 10,9 10,9 - - 5 3 - - NNW 994,9 8 0,2
20.10.2017 04:00:00 10,9 10,9 - - 5 3 - - W 994,6 8 0,2
20.10.2017 03:00:00 11,0 11,0 - - 4 2 - - SW 994,8 4,4 0,0
20.10.2017 02:00:00 10,9 10,9 - - 2 1 - - WNW 994,6 2,6 0,6
20.10.2017 01:00:00 10,8 10,8 - - 5 3 - - WNW 994,9 3,5 1,6
20.10.2017 00:00:00 11,0 11,0 - - 2 1 - - WSW 995,8 3,4 2,2
19.10.2017 23:00:00 10,8 10,8 - - 4 2 - - E 997,0 2,3 0,4
19.10.2017 22:00:00 10,7 10,7 - - 4 2 - - ESE 998,0 3,2 0,4
19.10.2017 21:00:00 10,7 10,7 - - 4 2 - - E 998,8 3,7 0,8
19.10.2017 20:00:00 11,1 10,7 - - 11 6 - - E 999,6 10 0,0
19.10.2017 19:00:00 11,4 10,2 - - 11 6 - - E 999,7 30 0,0
19.10.2017 18:00:00 11,5 10,4 - - 8 4 - - E 1000,0 28 0,0
19.10.2017 17:00:00 12,1 10,9 - - 13 7 - - ENE 1000,5 28 0,0
19.10.2017 16:00:00 12,3 11,0 - - 16 9 - - E 1000,9 26 0,0
19.10.2017 15:00:00 12,0 11,1 - - 11 6 - - E 1001,0 20 0,0
19.10.2017 14:00:00 12,0 11,4 - - 13 7 - - ENE 1001,6 19 0,0
19.10.2017 13:00:00 12,1 11,4 - - 9 5 - - E 1002,4 40 0,0
19.10.2017 12:00:00 11,6 11,1 - - 11 6 - - SE 1003,1 40 0,0
19.10.2017 11:00:00 11,9 11,1 - - 15 8 - - SE 1003,3 30 0,0
19.10.2017 10:00:00 11,5 11,1 11,0 11,4 5 3 - - ESE 1003,4 30 0,0
19.10.2017 09:00:00 10,9 10,6 - - 9 5 - - SE 1003,9 16 0,0
19.10.2017 08:00:00 10,6 10,5 - - 11 6 - - ESE 1004,2 6 0,2
19.10.2017 07:00:00 10,5 10,4 - - 13 7 - - ESE 1004,5 7 0,0
19.10.2017 06:00:00 10,0 10,0 - - 15 8 - - ESE 1005,0 6 0,0
19.10.2017 05:00:00 10,0 9,5 - - 13 7 - - ESE 1005,6 21 0,0
19.10.2017 04:00:00 9,5 9,5 - - 13 7 - - E 1006,4 23 0,0
19.10.2017 03:00:00 8,3 8,3 - - 11 6 - - E 1007,4 5 0,2
19.10.2017 02:00:00 7,7 7,7 - - 11 6 - - E 1007,8 3,6 0,0
19.10.2017 01:00:00 8,2 7,7 - - 11 6 - - E 1008,4 15 0,0
19.10.2017 00:00:00 6,2 6,2 - - 4 2 - - NE 1009,3 20 0,0
18.10.2017 23:00:00 5,7 5,7 - - 2 1 - - ESE 1010,4 11 0,0
18.10.2017 22:00:00 5,3 5,3 - - 4 2 - - E 1010,8 13 0,0
18.10.2017 21:00:00 5,0 5,0 - - 5 3 - - S 1011,4 14 0,0
18.10.2017 20:00:00 6,1 6,1 - - 8 4 - - E 1011,7 30 0,2
18.10.2017 19:00:00 6,4 6,3 - - 5 3 - - ENE 1012,1 30 0,0
18.10.2017 18:00:00 8,1 7,5 - - 4 2 - - E 1012,4 35 0,0
18.10.2017 17:00:00 8,4 7,4 - - 13 7 - - ESE 1013,0 11 0,0
18.10.2017 16:00:00 8,9 7,7 - - 9 5 - - E 1013,4 35 0,0
18.10.2017 15:00:00 10,1 6,6 - - 11 6 - - ESE 1013,8 29 0,0
18.10.2017 14:00:00 10,0 6,8 - - 9 5 - - E 1014,3 40 0,0
18.10.2017 13:00:00 10,0 7,6 - - 9 5 - - E 1014,8 24 0,0
18.10.2017 12:00:00 9,2 6,6 - - 2 1 - - ESE 1015,5 26 0,0
18.10.2017 11:00:00 7,6 7,6 - - 2 1 - - W 1016,0 22 0,0
18.10.2017 10:00:00 6,6 6,6 11,2 11,5 4 2 - - WSW 1016,4 18 0,0
18.10.2017 09:00:00 4,0 4,0 - - 0 0 - - N 1016,8 4,1 0,0
18.10.2017 08:00:00 5,3 5,3 - - 5 3 - - NNW 1016,1 13 0,0
18.10.2017 07:00:00 5,9 5,9 - - 2 1 - - W 1016,1 11 0,0
18.10.2017 06:00:00 5,5 5,5 - - 0 0 - - N 1016,4 14 0,0
18.10.2017 05:00:00 6,4 6,4 - - 4 2 - - WSW 1016,4 6 0,0
18.10.2017 04:00:00 6,4 6,4 - - 4 2 - - W 1016,4 15 0,0
18.10.2017 03:00:00 6,9 6,9 - - 2 1 - - NNW 1016,4 13 0,0
18.10.2017 02:00:00 7,2 7,2 - - 2 1 - - W 1016,5 11 0,0
18.10.2017 01:00:00 7,6 7,6 - - 5 3 - - W 1016,5 21 0,2
18.10.2017 00:00:00 7,7 7,7 - - 5 3 - - W 1016,2 10 0,2
17.10.2017 23:00:00 8,0 7,5 - - 5 3 - - WNW 1015,6 15 0,0
17.10.2017 22:00:00 8,3 7,6 - - 5 3 - - NW 1015,0 12 0,0
17.10.2017 21:00:00 8,7 7,6 - - 9 5 - - NW 1014,6 7 0,0
17.10.2017 20:00:00 9,2 7,7 - - 9 5 - - NW 1013,8 13 0,0
17.10.2017 19:00:00 9,2 7,3 - - 11 6 - - NW 1012,6 27 0,0
17.10.2017 18:00:00 9,9 7,8 - - 13 7 - - NW 1011,5 50 0,0
17.10.2017 17:00:00 10,5 8,2 - - 13 7 - - NW 1010,0 35 0,0
17.10.2017 16:00:00 11,2 8,9 - - 13 7 - - NW 1008,4 50 0,0
17.10.2017 15:00:00 12,2 9,7 - - 21 11 - - WNW 1006,6 45 0,0
17.10.2017 14:00:00 12,7 9,9 - - 22 12 - - WNW 1004,7 50 0,0
17.10.2017 13:00:00 13,4 10,8 - - 31 17 46 25 W 1002,7 9 0,0
17.10.2017 12:00:00 14,7 10,9 - - 22 12 - - W 1001,0 45 0,0
17.10.2017 11:00:00 14,7 10,4 - - 24 13 - - W 998,9 45 0,0
17.10.2017 10:00:00 13,7 9,4 11,2 11,5 24 13 50 27 W 997,3 40 0,0
17.10.2017 09:00:00 12,9 9,4 - - 24 13 - - W 995,9 35 0,0
17.10.2017 08:00:00 12,9 9,7 - - 31 17 57 31 W 994,1 50 0,0
17.10.2017 07:00:00 13,5 9,4 - - 35 19 63 34 W 992,1 50 0,0
17.10.2017 06:00:00 12,8 10,0 - - 35 19 54 29 SW 990,1 50 0,0
17.10.2017 05:00:00 12,1 9,7 - - 16 9 48 26 SW 990,1 40 0,0
17.10.2017 04:00:00 11,9 10,1 - - 15 8 - - SW 990,6 13 0,2
17.10.2017 03:00:00 12,7 10,3 - - 16 9 - - SSW 991,3 9 0,2
17.10.2017 02:00:00 12,1 10,8 - - 11 6 - - SSW 992,0 10 0,4
17.10.2017 01:00:00 12,0 10,6 - - 18 10 48 26 S 992,7 9 0,6
17.10.2017 00:00:00 11,4 10,7 - - 18 10 - - SE 993,6 4,5 0,6
16.10.2017 23:00:00 11,2 10,2 - - 24 13 - - SE 994,4 6 0,2
16.10.2017 22:00:00 11,6 10,2 - - 16 9 - - SE 996,0 11 0,4
16.10.2017 21:00:00 12,9 11,4 - - 11 6 - - ESE 997,1 12 0,0
16.10.2017 20:00:00 12,6 12,4 - - 9 5 - - E 998,1 10 0,2
16.10.2017 19:00:00 12,0 12,0 - - 11 6 - - E 999,2 2,5 0,2
16.10.2017 18:00:00 11,8 11,8 - - 22 12 - - ESE 1000,9 3,3 1,2
16.10.2017 17:00:00 11,4 11,4 - - 21 11 - - E 1003,1 2,3 0,4
16.10.2017 16:00:00 9,9 9,9 - - 8 4 - - E 1005,3 0,6 0,4
16.10.2017 15:00:00 8,8 8,8 - - 2 1 - - NNE 1008,1 1,8 0,8
16.10.2017 14:00:00 8,7 8,7 - - 2 1 - - SE 1009,7 2,2 0,8
16.10.2017 13:00:00 8,4 8,4 - - 2 1 - - SSW 1011,2 1,3 0,8
16.10.2017 12:00:00 8,1 8,1 - - 2 1 - - SSE 1012,8 4,3 3,0
16.10.2017 11:00:00 7,9 7,9 - - 4 2 - - NE 1013,6 8 3,2
16.10.2017 10:00:00 7,9 7,9 11,4 11,5 4 2 - - NW 1014,6 6 1,2
16.10.2017 09:00:00 7,7 7,7 - - 5 3 - - W 1014,2 23 0,0
16.10.2017 08:00:00 7,5 7,5 - - 4 2 - - WSW 1014,4 24 0,4
16.10.2017 07:00:00 7,5 7,5 - - 4 2 - - WSW 1015,2 14 1,2
16.10.2017 06:00:00 7,5 7,5 - - 2 1 - - WNW 1015,2 6 1,2
16.10.2017 05:00:00 7,9 7,6 - - 5 3 - - NNW 1014,9 45 0,0
16.10.2017 04:00:00 7,9 7,3 - - 4 2 - - NW 1014,6 50 0,0
16.10.2017 03:00:00 8,0 7,3 - - 4 2 - - ESE 1014,7 40 0,0
16.10.2017 02:00:00 8,0 7,0 - - 5 3 - - E 1014,6 50 0,0
16.10.2017 01:00:00 8,0 6,6 - - 2 1 - - WNW 1014,6 35 0,0
16.10.2017 00:00:00 8,3 6,6 - - 2 1 - - NE 1013,7 50 0,0
15.10.2017 23:00:00 8,7 6,4 - - 4 2 - - NNW 1013,5 45 0,0
15.10.2017 22:00:00 9,4 6,3 - - 9 5 - - WNW 1012,8 45 0,0
15.10.2017 21:00:00 10,4 6,6 - - 11 6 - - WNW 1012,0 50 0,0
15.10.2017 20:00:00 10,3 7,1 - - 5 3 - - E 1011,8 45 0,0

tt = Température de l'air
td = dewpoint
tt -20cm = Température de l'air -20cm
tt -100cm = Température de l'air -100cm
ff = Vitesse du vent
fx = gusts
dd = Direction du vent
ppp = reduced air pressure
vv = visibility
rr = Quantités de précipitations

stations d'obs. à proximité